Regional Weather Roundup
Issued by NWS

Home | Current Version | Previous Version | Text Only | Print | Product List | Glossary Off
Versions: 1 2 3 4 5 6 7 8 9 10 11 12 13 14 15 16 17 18 19 20 21 22 23 24 25 26 27 28 29 30 31 32 33 34 35 36 37 38 39 40 41 42 43 44 45 46 47 48 49 50

000
ASUS43 KTOP 201908
RWRKS

WEATHER ROUNDUP FOR KANSAS
NATIONAL WEATHER SERVICE GOODLAND KS
200 PM CDT SUN APR 20 2014

NOTE:  "FAIR" INDICATES FEW OR NO CLOUDS BELOW 12,000 FEET WITH NO
SIGNIFICANT WEATHER AND/OR OBSTRUCTIONS TO VISIBILITY.

KSZ001>006-013>018-027>032-041>047-202000-
NORTHWEST KANSAS

CITY           SKY/WX    TMP DP  RH WIND       PRES   REMARKS
GOODLAND       PTSUNNY   66  51  58 CALM      29.99F
HAYS           CLOUDY    72  55  56 S15       29.98F
HILL CITY      CLOUDY    77  51  40 S13       29.96F
RUSSELL        CLOUDY    74  54  49 S13       29.98F
$$

KSZ061>065-074>080-084>089-202000-
SOUTHWEST KANSAS

CITY           SKY/WX    TMP DP  RH WIND       PRES   REMARKS
DODGE CITY     MOSUNNY   76  52  43 S18G26    29.97F
ELKHART          N/A     75  47  37 S10         N/A
GARDEN CITY    SUNNY     76  49  38 S20G29    29.95F
GREAT BEND     CLOUDY    70  55  60 S15G22    30.00F
LIBERAL        SUNNY     79  46  31 S21G30    29.97F
PRATT          CLOUDY    64  55  72 S13       30.03F
$$

KSZ066>073-081>083-090>101-202000-
SOUTHEAST KANSAS

CITY           SKY/WX    TMP DP  RH WIND       PRES   REMARKS
CHANUTE        CLOUDY    74  53  48 SW15      30.09F
COFFEYVILLE    CLOUDY    71  54  54 S16       30.11F
HUTCHINSON     LGT RAIN  64  58  80 S12       30.04F
MEDICINE LODGE   N/A     70  60  70 VRB7      30.02F
NEWTON         CLOUDY    68  52  56 SW17G24   30.09S
PARSONS        CLOUDY    73  53  49 S12       30.11S
WICHITA INTL   LGT RAIN  67  57  70 SW10      30.06F
WICHITA JABRA  CLOUDY    70  57  63 S10       30.06F
WICHITA MCCONL CLOUDY    68  64  88 S10       30.06F
WINFIELD       LGT RAIN  66  61  84 S8        30.09S
$$

KSZ007>012-019>026-033>040-048>060-102>105-202000-
NORTHEAST KANSAS

CITY           SKY/WX    TMP DP  RH WIND       PRES   REMARKS
CONCORDIA      PTSUNNY   76  52  43 SW15G25   29.98F
EMPORIA        CLOUDY    73  52  47 S20       30.05S
LAWRENCE       PTSUNNY   78  54  43 S18G26    30.04F
MANHATTAN      CLOUDY    77  55  46 S15G24    30.00F
OLATHE IND     PTSUNNY   74  52  46 S16       30.07F
OLATHE EXE     PTSUNNY   75  52  44 SW12G24   30.06F
SALINA         CLOUDY    70  55  59 S15G22    30.02F
TOPEKA BILLARD PTSUNNY   77  53  43 S16       30.03F
TOPEKA FORBES  CLOUDY    75  54  47 S20       30.04S
$$



USA.gov is the U.S. government's official web portal to all federal, state and local government web resources and services.